STARLINK-34572, 64720

Orbit data source: Space-Track

STARLINK-34572, 64720 is a payload satellite owned by SpaceX/Seattle (US) in LEO that was launched on Sat, 28 Jun 2025 UTC via an FALCON 9 launch vehicle from the Air Force Western Test Range (AFWTR). Payload-class satellites include a variety of spacecraft equipped with specific instruments for various scientific and technological missions. These include communications satellites like Starlink; space stations such as the ISS; scientific satellites like the Hubble; Earth observation satellites from companies like Planet Labs, Umbra, and HawkEye 360; GPS; miniature CubeSats for education and research; and military/defense satellites.

Not visible in the next 10 days
Identifier
64720, 2025-142AA
Orbit
LEO
Last TLE update
9 hours ago
Origin
Manufacturer
SpaceX/Seattle
Mission
Operational spacecraft
Bus & Motor
STARLINK V2MO, Unknown motor
Mass
575 kg wet, ~530 kg dry
Launch date (UTC)
2025-06-28 (1 week ago)
Launch vehicle
FALCON 9
Launch site
Air Force Western Test Range (AFWTR)
Object type
Payload
Rocket body
Debris
Shape & HBR
Unknown
Radar Cross Section
RCS unknown

Expand to show TLE details & history

TLE from 9 hours ago
0 STARLINK-34572
1 64720U 25142AA  25186.58335648 -.01462388  59361-3 -50767-2 0  9995
2 64720  69.9947 231.2958 0003679 275.2466  85.4273 15.89276642  2294
Epoch: 2025-07-05T14:00Z
TLE epoch observation values (Epoch: 2025-07-05T14:00:01.999Z)
Latitude
0.56308°
Longitude
97.67201°
Altitude
306.564 km
Speed
7.724 km/s
True Right ascension
15h 25m 59s
True Declination
0° 33' 34"
Sunlit
Object was in full shadow at epoch
Visualization orbit readout
Latitude
-47.29035°
Longitude
73.31199°
Altitude
323.125 km
Speed
7.714 km/s
Apparent Right ascension
18h 37m 54s
Apparent Declination
-67° 49' 39"
Sunlit
Object is in full shadow
Visualization observer readout
Local Sidereal Time
10:47:13
Azimuth
150.79° SSE
Elevation
-46.771°
Doppler factor
1
Orbital elements
Apogee altitude
304.634 km
Perigee altitude
299.718 km
Semi-major axis
6,680.313 km
Eccentricity
0.00037
Inclination
69.9947°
RAAN
231.2958°
Arg. of periapsis
275.2466°
True anomaly
Unknown
Mean anomaly
85.4273°
Eccentric anomaly
Unknown
Mean motion
3.9751 °/min
Orbital period
90.56 mins
BSTAR
-0.0050767
Loading maneuver chart data...
Loading SW <> Apogee altitude chart data...
Loading historical data...
Loading historical data...
Loading historical data...
Loading historical data...
Loading historical data...
Loading historical data...
Loading historical data...

STARLINK-34572 Visibility

Observer location: undefined°, undefined°

STARLINK-34572 is likely not visible in the next few days
Span
Click to sort rows by Start time (UTC) header in descending order
Start Az.
Max El. time (UTC)
Max El. Az.
Max El.
End time (UTC)
End Az.
|